Showing default

COSMOS 2215, 22186

Orbit data source: Space-Track

COSMOS 2215, 22186 is a payload satellite owned by VKS (CIS) in LEO that was launched on Tue, 20 Oct 1992 UTC via a TSIKLON-3 launch vehicle from the Plesetsk Missile And Space Complex (PKMTR). Payload-class satellites include a variety of spacecraft equipped with specific instruments for various scientific and technological missions. These include communications satellites like Starlink; space stations such as the ISS; scientific satellites like the Hubble; Earth observation satellites from companies like Planet Labs, Umbra, and HawkEye 360; GPS; miniature CubeSats for education and research; and military/defense satellites.

Loading next visibility...
Identifier
22186, 1992-068E
Orbit
LEO
Country
Flag of CISCIS
Related business
Manufacturer
NPO PM
Mission
Defense Communications
Bus & Motor
STRELA-3, Unknown motor
Mass
225 kg wet, 225 kg dry
Launch date (UTC)
1992-10-20 (33 years ago)
Launch vehicle
TSIKLON-3
Launch site
Plesetsk Missile And Space Complex (PKMTR)
Object type
Payload
Rocket body
Debris
Shape & HBR
Cyl, 0.8 m
Radar Cross Section
1.257 m², Medium (>0.1 m² and < 1m²)

Expand to show TLE details & history
Last TLE update: 10 hours ago

TLE from 10 hours ago
0 COSMOS 2215
1 22186U 92068E   26036.12256524  .00000033  00000-0  12847-3 0  9999
2 22186  82.5984  96.5417 0013822 115.2855 244.9669 12.60960138532222
Epoch: 2026-02-05T02:56Z
TLE epoch observation values (Epoch: 2026-02-05T02:56:29.636Z)
Latitude
-0.00005°
Longitude
-82.86111°
Altitude
1,426.286 km
Speed
7.146 km/s
True Right ascension
06h 26m 10s
True Declination
0° 00' 00"
Sunlit
Object was in full shadow at epoch
Visualization orbit readout
Latitude
Unknown
Longitude
Unknown
Altitude
Unknown
Speed
Unknown
Apparent Right ascension
Unknown
Apparent Declination
Unknown
Sunlit
N/A
Visualization observer readout
Local Sidereal Time
15:18:01
Azimuth
Unknown
Elevation
Unknown
Doppler factor
Unknown
Orbital elements
Apogee altitude
1,427.079 km
Perigee altitude
1,405.532 km
Semi-major axis
7,794.443 km
Eccentricity
0.00138
Inclination
82.5984°
RAAN
96.5417°
Arg. of periapsis
115.2855°
True anomaly
244.82349°
Mean anomaly
244.9669°
Eccentric anomaly
244.89519°
Mean motion
3.15403 °/min
Orbital period
114.14 mins
BSTAR
0.00012847
Loading maneuver chart data...
Computing Atmospheric mass density...
Loading historical data...
Loading historical data...
Loading historical data...
Loading historical data...
Loading historical data...
Loading historical data...
Loading historical data...

Documentation

Showing up to 5 results
|